User: anonymous   Login
Location: Penum?ka
(16.4840°N, 80.5772°E)
Time: 11:37:14
(UTC+00:00)
Language:

Stardust Del rocket - Orbit

View from above orbital plane
View from above orbital plane
View from above satellite
View from above satellite

Ground track
Ground track

The orbit data is extracted from the following two-line orbital elements,

1 25619U 99003B   25198.89065884  .00034742 -49846-5  98123-3 0  9990
2 25619  22.4436   9.1804 1850427  68.2228 310.4437 11.75176242983630
Epoch (UTC): 17 July 2025 21:22:32
Eccentricity: 0.1850427
inclination: 22.4436°
perigee height: 282 km
apogee height: 3306 km
right ascension of ascending node: 9.1804°
argument of perigee: 68.2228°
revolutions per day: 11.75176242
mean anomaly at epoch: 310.4437°
orbit number at epoch: 98363

The dashed part of the orbit path shows where the satellite is in the earth's shadow,  

DLR